S51UL-6 Weather Reports


Display with metric or nautical units.
time (UTC)temp
F
wind
direction
speed
MPH
gust
MPH
rain 1hr
in
rain 24hr
in
rain mn
in
humidity
%
barometer
mb
20260508050248 42 315 0.0 0.0 0.00 0.00 0.00 86 1017.8
20260508045747 41 315 0.0 0.0 0.00 0.00 0.00 86 1017.7
20260508045247 41 315 0.0 0.0 0.00 0.00 0.00 86 1017.5
20260508044747 40 315 0.0 0.0 0.00 0.00 0.00 86 1017.8
20260508044247 40 315 0.0 0.0 0.00 0.00 0.00 85 1017.5
20260508043747 40 315 0.0 0.0 0.00 0.00 0.00 85 1017.7
20260508043247 39 315 0.0 0.0 0.00 0.00 0.00 85 1017.5
20260508042747 39 315 0.0 0.0 0.00 0.00 0.00 85 1017.6
20260508042247 39 315 0.0 0.0 0.00 0.00 0.00 85 1017.5
20260508041747 39 315 0.0 0.0 0.00 0.00 0.00 85 1017.6
20260508041247 39 315 0.0 0.0 0.00 0.00 0.00 85 1017.4
20260508040747 39 315 0.0 0.0 0.00 0.00 0.00 85 1017.4
20260508035749 38 315 0.0 0.0 0.00 0.00 0.00 85 1017.4
20260508035248 38 315 0.0 0.0 0.00 0.00 0.00 85 1017.6
20260508034748 39 315 0.0 0.0 0.00 0.00 0.00 85 1017.5
20260508033748 39 315 0.0 0.0 0.00 0.00 0.00 85 1017.5
20260508032248 39 315 0.0 0.0 0.00 0.00 0.00 85 1017.4
20260508030749 40 315 0.0 0.0 0.00 0.00 0.00 85 1017.3
20260508030248 40 315 0.0 0.0 0.00 0.00 0.00 84 1017.3
20260508025748 40 315 0.0 0.0 0.00 0.00 0.00 84 1017.4
20260508024748 41 315 0.0 0.0 0.00 0.00 0.00 84 1017.4
20260508024249 41 315 0.0 0.0 0.00 0.00 0.00 84 1017.1
20260508023749 41 315 0.0 0.0 0.00 0.00 0.00 84 1017.1
20260508023248 41 315 0.0 0.0 0.00 0.00 0.00 84 1017.1
20260508022749 41 315 0.0 0.0 0.00 0.00 0.00 84 1016.9
20260508022249 41 315 0.0 0.0 0.00 0.00 0.00 84 1017.1
20260508021751 41 315 0.0 0.0 0.00 0.00 0.00 84 1017.1
20260508021249 41 315 0.0 0.0 0.00 0.00 0.00 83 1017.0
20260508015749 41 315 0.0 0.0 0.00 0.00 0.00 83 1016.8
20260508014749 41 315 0.0 0.0 0.00 0.00 0.00 83 1017.0
20260508014249 41 315 0.0 0.0 0.00 0.00 0.00 83 1017.0
20260508013250 42 315 0.0 0.0 0.00 0.00 0.00 83 1016.9
20260508012750 42 315 0.0 0.0 0.00 0.00 0.00 83 1016.9
20260508010750 42 315 0.0 0.0 0.00 0.00 0.00 82 1016.7
20260508010248 42 315 0.0 0.0 0.00 0.00 0.00 82 1016.6
20260508005750 42 315 0.0 0.0 0.00 0.00 0.00 82 1016.6
20260508004751 42 315 0.0 0.0 0.00 0.00 0.00 81 1016.6
20260508003251 43 315 0.0 0.0 0.00 0.00 0.00 81 1016.7
20260508001753 43 315 0.0 0.0 0.00 0.00 0.00 80 1017.0
20260508001250 43 315 0.0 0.0 0.00 0.00 0.00 80 1016.8
20260507235750 44 315 0.0 0.0 0.00 0.00 0.00 80 1017.0
20260507233252 45 315 0.0 0.0 0.00 0.00 0.00 79 1017.1
20260507232751 45 315 0.0 0.0 0.00 0.00 0.00 79 1017.1
20260507232251 46 315 0.0 0.0 0.00 0.00 0.00 79 1017.3
20260507231753 46 315 0.0 0.0 0.00 0.00 0.00 78 1017.1
20260507231251 46 315 0.0 0.0 0.00 0.00 0.00 78 1017.4
20260507230253 46 315 0.0 0.0 0.00 0.00 0.00 77 1017.4
20260507225252 47 315 0.0 0.0 0.00 0.00 0.00 76 1017.4
20260507224255 47 315 0.0 0.0 0.00 0.00 0.00 76 1017.4
20260507221751 49 315 0.0 0.0 0.00 0.00 0.00 75 1017.2
20260507214752 50 315 0.0 0.0 0.00 0.00 0.00 73 1017.5
20260507211252 53 315 0.0 0.0 0.00 0.00 0.00 70 1017.4
20260507204752 54 315 0.0 0.0 0.00 0.00 0.00 70 1017.1
20260507204253 54 315 0.0 0.0 0.00 0.00 0.00 69 1017.3
20260507200753 55 23 0.0 0.0 0.00 0.00 0.00 67 1017.0
20260507200253 55 315 0.0 0.0 0.00 0.00 0.00 67 1017.0
20260507194753 55 23 0.0 0.0 0.00 0.00 0.00 66 1016.7
20260507194253 55 23 0.0 0.0 0.00 0.00 0.00 66 1016.6
20260507193253 56 0 0.0 0.0 0.00 0.00 0.00 65 1016.8
20260507192754 56 23 0.0 0.0 0.00 0.00 0.00 65 1016.5
20260507192253 56 23 0.0 0.0 0.00 0.00 0.00 65 1016.2
20260507191753 56 23 0.0 0.0 0.00 0.00 0.00 65 1016.1
20260507190753 56 315 0.0 1.0 0.00 0.00 0.00 64 1016.1
20260507190253 56 293 1.0 5.0 0.00 0.00 0.00 63 1015.8
20260507185755 56 338 1.0 5.0 0.00 0.00 0.00 62 1015.6
20260507185253 57 23 1.0 4.0 0.00 0.00 0.00 62 1015.4
20260507184255 57 0 5.0 16.0 0.00 0.00 0.00 61 1015.1
20260507183754 58 0 7.0 16.0 0.00 0.00 0.00 60 1015.3
20260507182754 60 338 2.0 5.0 0.00 0.00 0.00 58 1015.1
20260507182252 60 338 2.0 9.0 0.00 0.00 0.00 58 1014.8
20260507181754 61 0 5.0 9.0 0.00 0.00 0.00 58 1014.5
20260507181254 62 0 6.0 7.0 0.00 0.00 0.00 57 1014.1
20260507180754 63 0 4.0 7.0 0.00 0.00 0.00 56 1013.9
20260507180255 63 0 4.0 7.0 0.00 0.00 0.00 56 1013.6
20260507175754 64 0 2.0 4.0 0.00 0.00 0.00 57 1013.3
20260507175255 64 158 1.0 6.0 0.00 0.00 0.00 59 1013.2
20260507173755 65 158 0.0 0.0 0.00 0.00 0.00 59 1011.9
20260507173254 65 158 0.0 0.0 0.00 0.00 0.00 59 1011.7
20260507172755 65 158 1.0 4.0 0.00 0.00 0.00 58 1011.7
20260507172255 66 158 0.0 4.0 0.00 0.00 0.00 57 1011.4
20260507171755 66 158 1.0 4.0 0.00 0.00 0.00 57 1011.3
20260507171022 67 135 3.0 7.0 0.00 0.00 0.00 56 1011.4
20260507170755 67 135 3.0 7.0 0.00 0.00 0.00 56 1011.4
20260507170255 67 158 4.0 8.0 0.00 0.00 0.00 56 1011.3
20260507165755 67 158 6.0 8.0 0.00 0.00 0.00 56 1011.2
20260507165255 67 158 6.0 8.0 0.00 0.00 0.00 57 1011.4
20260507163255 68 135 6.0 11.0 0.00 0.00 0.00 56 1011.4
20260507162756 68 158 5.0 7.0 0.00 0.00 0.00 56 1011.3
20260507162255 68 158 6.0 12.0 0.00 0.00 0.00 55 1011.3
20260507162009 68 180 9.0 12.0 0.00 0.00 0.00 55 1011.2
20260507161755 68 180 9.0 12.0 0.00 0.00 0.00 55 1011.2
20260507161256 69 158 9.0 9.0 0.00 0.00 0.00 55 1011.1
20260507160256 69 158 6.0 8.0 0.00 0.00 0.00 54 1011.0
20260507155256 69 158 4.0 6.0 0.00 0.00 0.00 54 1011.1
20260507153756 69 135 4.0 7.0 0.00 0.00 0.00 55 1011.0
20260507153257 69 135 5.0 9.0 0.00 0.00 0.00 55 1010.9
20260507152756 69 158 5.0 9.0 0.00 0.00 0.00 57 1011.1
20260507152256 69 180 4.0 7.0 0.00 0.00 0.00 58 1011.1
20260507151756 69 180 6.0 8.0 0.00 0.00 0.00 58 1011.1
20260507151256 69 135 7.0 9.0 0.00 0.00 0.00 58 1011.1
20260507150756 69 158 6.0 9.0 0.00 0.00 0.00 58 1011.0
20260507150256 69 180 7.0 11.0 0.00 0.00 0.00 58 1011.1
20260507145756 69 158 11.0 15.0 0.00 0.00 0.00 57 1011.1
20260507145256 69 158 9.0 15.0 0.00 0.00 0.00 57 1011.2
20260507144257 70 158 10.0 13.0 0.00 0.00 0.00 56 1011.1
20260507143756 71 158 7.0 13.0 0.00 0.00 0.00 56 1011.2
20260507143256 71 135 5.0 8.0 0.00 0.00 0.00 56 1011.3
20260507142757 71 158 6.0 7.0 0.00 0.00 0.00 57 1011.1
20260507142258 71 135 5.0 7.0 0.00 0.00 0.00 57 1011.3
20260507140757 71 158 12.0 13.0 0.00 0.00 0.00 59 1011.4
20260507140257 70 135 10.0 13.0 0.00 0.00 0.00 59 1011.3
20260507135257 68 158 7.0 13.0 0.00 0.00 0.00 61 1011.5
20260507134758 68 180 8.0 13.0 0.00 0.00 0.00 60 1011.5
20260507134257 69 158 6.0 8.0 0.00 0.00 0.00 59 1011.8
20260507133757 69 158 6.0 7.0 0.00 0.00 0.00 58 1011.6
20260507133258 69 158 7.0 15.0 0.00 0.00 0.00 57 1011.6
20260507132757 70 180 7.0 15.0 0.00 0.00 0.00 55 1011.7
20260507132257 71 180 7.0 13.0 0.00 0.00 0.00 54 1011.7
20260507131759 71 158 7.0 13.0 0.00 0.00 0.00 54 1011.5
20260507131257 71 158 6.0 11.0 0.00 0.00 0.00 53 1011.7
20260507130757 71 135 5.0 11.0 0.00 0.00 0.00 53 1012.0
20260507130258 72 158 7.0 10.0 0.00 0.00 0.00 53 1011.7
20260507125757 73 158 8.0 10.0 0.00 0.00 0.00 51 1011.9
20260507125258 73 158 6.0 8.0 0.00 0.00 0.00 51 1011.8
20260507124757 73 158 7.0 9.0 0.00 0.00 0.00 52 1011.9
20260507124258 73 158 7.0 9.0 0.00 0.00 0.00 52 1012.0
20260507123258 74 135 5.0 9.0 0.00 0.00 0.00 52 1012.0
20260507122959 73 158 9.0 10.0 0.00 0.00 0.00 55 1012.3
20260507122758 73 135 8.0 14.0 0.00 0.00 0.00 53 1012.0
20260507121758 72 158 5.0 9.0 0.00 0.00 0.00 54 1012.2
20260507121258 72 180 5.0 9.0 0.00 0.00 0.00 53 1012.3
20260507120800 73 158 5.0 7.0 0.00 0.00 0.00 53 1012.2
20260507120258 74 158 4.0 7.0 0.00 0.00 0.00 53 1012.2
20260507115759 74 158 5.0 6.0 0.00 0.00 0.00 54 1012.1
20260507115258 74 158 5.0 9.0 0.00 0.00 0.00 54 1012.1
20260507114759 73 158 7.0 9.0 0.00 0.00 0.00 54 1012.2
20260507114258 73 158 9.0 10.0 0.00 0.00 0.00 55 1012.3
20260507113758 73 158 7.0 10.0 0.00 0.00 0.00 54 1012.4
20260507113258 73 158 7.0 12.0 0.00 0.00 0.00 55 1012.3
20260507112759 74 158 5.0 12.0 0.00 0.00 0.00 54 1012.3
20260507112259 73 158 3.0 6.0 0.00 0.00 0.00 54 1012.3
20260507111300 75 158 8.0 12.0 0.00 0.00 0.00 52 1012.3
20260507110759 75 135 8.0 13.0 0.00 0.00 0.00 52 1012.4
20260507105259 74 158 10.0 14.0 0.00 0.00 0.00 53 1012.6
20260507104759 73 158 9.0 14.0 0.00 0.00 0.00 54 1012.5
20260507104259 73 158 4.0 7.0 0.00 0.00 0.00 55 1012.5
20260507103759 73 135 5.0 7.0 0.00 0.00 0.00 57 1012.6
20260507103300 72 158 3.0 7.0 0.00 0.00 0.00 58 1012.6
20260507102759 71 158 3.0 5.0 0.00 0.00 0.00 59 1012.9
20260507102300 71 158 2.0 8.0 0.00 0.00 0.00 60 1012.8
20260507101800 70 158 4.0 8.0 0.00 0.00 0.00 60 1013.0
20260507101300 70 135 4.0 5.0 0.00 0.00 0.00 60 1012.7
20260507101026 70 135 4.0 7.0 0.00 0.00 0.00 60 1012.8
20260507100800 70 135 4.0 7.0 0.00 0.00 0.00 60 1012.8
20260507095759 68 180 6.0 13.0 0.00 0.00 0.00 63 1013.1
20260507095300 68 180 7.0 13.0 0.00 0.00 0.00 63 1013.2
20260507094800 67 135 4.0 8.0 0.00 0.00 0.00 65 1013.1
20260507094300 66 135 6.0 8.0 0.00 0.00 0.00 65 1013.3
20260507092301 66 158 3.0 7.0 0.00 0.00 0.00 67 1013.4
20260507091300 65 135 4.0 8.0 0.00 0.00 0.00 68 1013.4
20260507090800 65 135 3.0 7.0 0.00 0.00 0.00 68 1013.2
20260507090300 65 158 7.0 12.0 0.00 0.00 0.00 68 1013.4
20260507085300 64 158 3.0 6.0 0.00 0.00 0.00 71 1013.2
20260507084801 63 158 5.0 7.0 0.00 0.00 0.00 71 1013.2
20260507084301 63 158 4.0 7.0 0.00 0.00 0.00 71 1013.4
20260507082801 62 180 1.0 4.0 0.00 0.00 0.00 73 1013.2
20260507082301 62 180 1.0 4.0 0.00 0.00 0.00 73 1013.1
20260507081801 62 135 0.0 0.0 0.00 0.00 0.00 74 1013.1
20260507080801 61 158 0.0 4.0 0.00 0.00 0.00 75 1013.0
20260507080301 61 135 0.0 1.0 0.00 0.00 0.00 76 1012.9
20260507075759 61 135 0.0 3.0 0.00 0.00 0.00 76 1013.1
20260507075301 60 180 1.0 3.0 0.00 0.00 0.00 76 1013.0
20260507074801 60 135 0.0 0.0 0.00 0.00 0.00 77 1012.9
20260507074301 60 135 0.0 0.0 0.00 0.00 0.00 77 1012.7
20260507073801 59 135 0.0 0.0 0.00 0.00 0.00 77 1012.7
20260507073301 59 158 0.0 0.0 0.00 0.00 0.00 77 1012.9
20260507072301 59 135 0.0 0.0 0.00 0.00 0.00 77 1012.7
20260507071802 59 135 0.0 0.0 0.00 0.00 0.00 78 1012.7
20260507071302 59 180 0.0 0.0 0.00 0.00 0.00 79 1012.7
20260507070802 59 158 0.0 0.0 0.00 0.00 0.00 79 1012.6
20260507070301 58 158 0.0 0.0 0.00 0.00 0.00 79 1012.4
20260507065802 58 158 0.0 0.0 0.00 0.00 0.00 80 1012.4
20260507065306 58 158 0.0 0.0 0.00 0.00 0.00 80 1012.6
20260507064803 58 158 0.0 0.0 0.00 0.00 0.00 81 1012.4
20260507064303 57 158 0.0 0.0 0.00 0.00 0.00 81 1012.2
20260507063802 57 45 0.0 0.0 0.00 0.00 0.00 81 1012.2
20260507063300 57 45 0.0 0.0 0.00 0.00 0.00 82 1012.2
20260507062802 56 45 0.0 0.0 0.00 0.00 0.00 82 1012.3
20260507062305 56 45 0.0 0.0 0.00 0.00 0.00 82 1012.4
20260507061802 56 45 0.0 0.0 0.00 0.00 0.00 82 1012.4
20260507061302 56 45 0.0 0.0 0.00 0.00 0.00 82 1012.3
20260507060802 55 45 0.0 0.0 0.00 0.00 0.00 82 1012.1
20260507055301 55 45 0.0 0.0 0.00 0.00 0.00 82 1012.1
20260507054801 55 45 0.0 0.0 0.00 0.00 0.00 82 1012.0
20260507054301 54 45 0.0 0.0 0.00 0.00 0.00 82 1012.0
20260507053802 54 45 0.0 0.0 0.00 0.00 0.00 82 1012.0
20260507053304 54 45 0.0 0.0 0.00 0.00 0.00 82 1011.9
20260507052803 54 45 0.0 0.0 0.00 0.00 0.00 82 1011.8
20260507051804 54 45 0.0 0.0 0.00 0.00 0.00 82 1012.0
20260507051303 53 158 0.0 0.0 0.00 0.00 0.00 82 1011.8
20260507050803 53 135 0.0 0.0 0.00 0.00 0.00 82 1011.7